Time,TemperatureF,DewpointF,PressureIn,WindDirection,WindDirectionDegrees,WindSpeedMPH,WindSpeedGustMPH,Humidity,HourlyPrecipIn,Conditions,Clouds,dailyrainin,SoftwareType,DateUTC
2013-02-19 00:02:00,17.0,15.0,-100.00,South,172,21.0,26.0,91,0.01,,,-99.99,,2013-02-19 00:02:00,
2013-02-19 00:12:00,17.0,15.0,-100.00,South,172,21.0,26.0,90,0.00,,,-99.99,,2013-02-19 00:12:00,
2013-02-19 00:22:00,17.0,14.0,-100.00,SSE,160,23.0,28.0,86,0.00,,,-99.99,,2013-02-19 00:22:00,
2013-02-19 00:33:00,17.0,14.0,-100.00,SSE,162,24.0,30.0,86,0.00,,,-99.99,,2013-02-19 00:33:00,
2013-02-19 00:42:00,17.0,14.0,-100.00,SSE,165,23.0,27.0,86,0.00,,,-99.99,,2013-02-19 00:42:00,
2013-02-19 00:55:00,-999.0,-99.9,-100.00,SSE,161,26.0,32.0,-999,-99.99,,,-99.99,,2013-02-19 00:55:00,
2013-02-19 01:03:00,17.0,13.0,-100.00,SSE,162,25.0,30.0,84,0.00,,,-99.99,,2013-02-19 01:03:00,
2013-02-19 01:13:00,17.0,12.0,-100.00,SSE,161,26.0,30.0,81,0.00,,,-99.99,,2013-02-19 01:13:00,
2013-02-19 01:23:00,17.0,11.0,-100.00,SSE,162,26.0,31.0,78,0.00,,,-99.99,,2013-02-19 01:23:00,
2013-02-19 01:33:00,16.0,13.0,-100.00,SSE,152,29.0,37.0,86,0.00,,,-99.99,,2013-02-19 01:33:00,
2013-02-19 01:43:00,17.0,13.0,-100.00,SSE,150,29.0,41.0,84,0.00,,,-99.99,,2013-02-19 01:43:00,
2013-02-19 01:53:00,17.0,13.0,-100.00,SSE,154,30.0,37.0,84,0.00,,,-99.99,,2013-02-19 01:53:00,
2013-02-19 02:02:00,17.0,13.0,-100.00,SSE,154,30.0,39.0,85,0.00,,,-99.99,,2013-02-19 02:02:00,
2013-02-19 02:13:00,16.0,12.0,-100.00,SSE,157,30.0,36.0,84,0.00,,,-99.99,,2013-02-19 02:13:00,
2013-02-19 02:22:00,16.0,12.0,-100.00,SSE,157,29.0,36.0,82,0.00,,,-99.99,,2013-02-19 02:22:00,
2013-02-19 02:33:00,18.0,8.0,-100.00,SE,141,26.0,32.0,65,0.00,,,-99.99,,2013-02-19 02:33:00,
2013-02-19 02:42:00,18.0,8.0,-100.00,SE,141,29.0,37.0,65,0.00,,,-99.99,,2013-02-19 02:42:00,
2013-02-19 02:53:00,18.0,8.0,-100.00,SE,137,29.0,35.0,62,0.00,,,-99.99,,2013-02-19 02:53:00,
2013-02-19 03:06:00,17.0,6.0,-100.00,SE,127,19.0,29.0,62,0.00,,,-99.99,,2013-02-19 03:06:00,
2013-02-19 03:13:00,17.0,6.0,-100.00,SE,124,18.0,26.0,62,0.00,,,-99.99,,2013-02-19 03:13:00,
2013-02-19 03:23:00,17.0,5.0,-100.00,SE,124,21.0,27.0,58,0.00,,,-99.99,,2013-02-19 03:23:00,
2013-02-19 03:33:00,17.0,4.0,-100.00,ESE,123,17.0,24.0,55,0.00,,,-99.99,,2013-02-19 03:33:00,
2013-02-19 03:43:00,17.0,3.0,-100.00,SE,124,18.0,24.0,53,0.00,,,-99.99,,2013-02-19 03:43:00,
2013-02-19 03:52:00,17.0,2.0,-100.00,ESE,123,16.0,21.0,52,0.00,,,-99.99,,2013-02-19 03:52:00,
2013-02-19 04:02:00,17.0,2.0,-100.00,SE,126,19.0,24.0,51,0.00,,,-99.99,,2013-02-19 04:02:00,
2013-02-19 04:13:00,17.0,1.0,-100.00,SE,126,16.0,21.0,50,0.00,,,-99.99,,2013-02-19 04:13:00,
2013-02-19 04:22:00,17.0,1.0,-100.00,SE,134,13.0,20.0,50,0.00,,,-99.99,,2013-02-19 04:22:00,
2013-02-19 04:33:00,17.0,1.0,-100.00,SE,130,14.0,21.0,48,0.00,,,-99.99,,2013-02-19 04:33:00,
2013-02-19 04:43:00,16.0,2.0,-100.00,ESE,110,10.0,18.0,53,0.00,,,-99.99,,2013-02-19 04:43:00,
2013-02-19 04:52:00,16.0,1.0,-100.00,East,97,9.0,18.0,51,0.00,,,-99.99,,2013-02-19 04:52:00,
2013-02-19 05:02:00,16.0,0.0,-100.00,ESE,113,12.0,17.0,49,0.00,,,-99.99,,2013-02-19 05:02:00,
2013-02-19 05:12:00,17.0,0.0,-100.00,ESE,121,12.0,18.0,46,0.00,,,-99.99,,2013-02-19 05:12:00,
2013-02-19 05:22:00,18.0,0.0,-100.00,SE,127,15.0,22.0,44,0.00,,,-99.99,,2013-02-19 05:22:00,
2013-02-19 05:32:00,18.0,0.0,-100.00,ESE,123,16.0,21.0,45,0.00,,,-99.99,,2013-02-19 05:32:00,
2013-02-19 05:43:00,17.0,0.0,-100.00,ESE,120,14.0,21.0,46,0.00,,,-99.99,,2013-02-19 05:43:00,
2013-02-19 05:52:00,18.0,-1.0,-100.00,ESE,123,14.0,21.0,43,0.00,,,-99.99,,2013-02-19 05:52:00,
2013-02-19 06:02:00,18.0,-1.0,-100.00,ESE,121,14.0,21.0,43,0.00,,,-99.99,,2013-02-19 06:02:00,
2013-02-19 06:11:00,18.0,-1.0,-100.00,ESE,123,14.0,20.0,43,0.00,,,-99.99,,2013-02-19 06:11:00,
2013-02-19 06:21:00,19.0,-1.0,-100.00,SE,126,17.0,24.0,41,0.00,,,-99.99,,2013-02-19 06:21:00,
2013-02-19 06:33:00,-999.0,-99.9,-100.00,SE,126,18.0,26.0,-999,-99.99,,,-99.99,,2013-02-19 06:33:00,
2013-02-19 06:42:00,17.0,0.0,-100.00,ESE,117,13.0,22.0,45,0.00,,,-99.99,,2013-02-19 06:42:00,
2013-02-19 06:52:00,17.0,0.0,-100.00,ESE,110,12.0,19.0,47,0.00,,,-99.99,,2013-02-19 06:52:00,
2013-02-19 07:01:00,18.0,0.0,-100.00,ESE,119,10.0,14.0,44,0.00,,,-99.99,,2013-02-19 07:01:00,
2013-02-19 07:11:00,18.0,0.0,-100.00,SE,126,11.0,17.0,43,0.00,,,-99.99,,2013-02-19 07:11:00,
2013-02-19 07:21:00,18.0,0.0,-100.00,SE,127,17.0,21.0,44,0.00,,,-99.99,,2013-02-19 07:21:00,
2013-02-19 07:32:00,17.0,1.0,-100.00,ESE,114,13.0,19.0,48,0.00,,,-99.99,,2013-02-19 07:32:00,
2013-02-19 07:42:00,17.0,1.0,-100.00,ESE,112,11.0,15.0,48,0.00,,,-99.99,,2013-02-19 07:42:00,
2013-02-19 07:52:00,18.0,0.0,-100.00,ESE,116,13.0,19.0,45,0.00,,,-99.99,,2013-02-19 07:52:00,
2013-02-19 08:02:00,17.0,1.0,-100.00,ESE,106,9.0,14.0,47,0.00,,,-99.99,,2013-02-19 08:02:00,
2013-02-19 08:11:00,17.0,1.0,-100.00,ESE,104,7.0,11.0,48,0.00,,,-99.99,,2013-02-19 08:11:00,
2013-02-19 08:21:00,18.0,0.0,-100.00,ESE,110,13.0,19.0,46,0.00,,,-99.99,,2013-02-19 08:21:00,
2013-02-19 08:31:00,18.0,1.0,-100.00,ESE,106,13.0,19.0,46,0.00,,,-99.99,,2013-02-19 08:31:00,
2013-02-19 08:42:00,18.0,0.0,-100.00,ESE,103,11.0,16.0,45,0.00,,,-99.99,,2013-02-19 08:42:00,
2013-02-19 08:52:00,18.0,-1.0,-100.00,ESE,107,7.0,12.0,44,0.00,,,-99.99,,2013-02-19 08:52:00,
2013-02-19 09:01:00,19.0,-1.0,-100.00,East,100,12.0,17.0,40,0.00,,,-99.99,,2013-02-19 09:01:00,
2013-02-19 09:11:00,19.0,-2.0,-100.00,ESE,107,12.0,19.0,39,0.00,,,-99.99,,2013-02-19 09:11:00,
2013-02-19 09:21:00,16.0,-1.0,-100.00,SE,145,7.0,16.0,45,0.00,,,-99.99,,2013-02-19 09:21:00,
2013-02-19 09:31:00,16.0,-1.0,-100.00,ESE,121,6.0,11.0,46,0.00,,,-99.99,,2013-02-19 09:31:00,
2013-02-19 09:42:00,18.0,-2.0,-100.00,ESE,102,11.0,16.0,41,0.00,,,-99.99,,2013-02-19 09:42:00,
2013-02-19 09:52:00,18.0,-4.0,-100.00,SE,128,10.0,13.0,36,0.00,,,-99.99,,2013-02-19 09:52:00,
2013-02-19 10:01:00,18.0,-5.0,-100.00,SE,131,11.0,15.0,36,0.00,,,-99.99,,2013-02-19 10:01:00,
2013-02-19 10:11:00,18.0,-4.0,-100.00,SE,137,11.0,15.0,36,0.00,,,-99.99,,2013-02-19 10:11:00,
2013-02-19 10:21:00,16.0,-4.0,-100.00,SSE,150,11.0,15.0,40,0.00,,,-99.99,,2013-02-19 10:21:00,
2013-02-19 10:31:00,16.0,-4.0,-100.00,SSE,148,8.0,15.0,41,0.00,,,-99.99,,2013-02-19 10:31:00,
2013-02-19 10:41:00,18.0,-8.0,-100.00,SE,140,9.0,17.0,31,0.00,,,-99.99,,2013-02-19 10:41:00,
2013-02-19 10:52:00,-999.0,-99.9,-100.00,SSE,147,13.0,17.0,-999,-99.99,,,-99.99,,2013-02-19 10:52:00,
2013-02-19 11:01:00,17.0,-4.0,-100.00,SSE,154,7.0,14.0,39,0.00,,,-99.99,,2013-02-19 11:01:00,
2013-02-19 11:21:00,18.0,-5.0,-100.00,SSE,160,7.0,11.0,36,0.00,,,-99.99,,2013-02-19 11:21:00,
2013-02-19 11:32:00,17.0,-5.0,-100.00,South,169,6.0,9.0,37,-99.99,,,-99.99,,2013-02-19 11:32:00,
2013-02-19 11:42:00,18.0,-5.0,-100.00,SE,145,4.0,7.0,34,0.00,,,-99.99,,2013-02-19 11:42:00,
2013-02-19 11:52:00,19.0,-6.0,-100.00,SE,140,2.0,5.0,33,0.00,,,-99.99,,2013-02-19 11:52:00,
2013-02-19 12:01:00,19.0,-6.0,-100.00,SE,128,4.0,7.0,33,0.00,,,-99.99,,2013-02-19 12:01:00,
2013-02-19 12:12:00,18.0,-5.0,-100.00,SE,126,4.0,7.0,34,0.00,,,-99.99,,2013-02-19 12:12:00,
2013-02-19 12:21:00,23.0,-7.0,-100.00,ESE,116,7.0,14.0,25,0.00,,,-99.99,,2013-02-19 12:21:00,
2013-02-19 12:32:00,23.0,-6.0,-100.00,ESE,112,4.0,9.0,27,0.00,,,-99.99,,2013-02-19 12:32:00,
2013-02-19 12:42:00,19.0,-5.0,-100.00,SSE,155,4.0,7.0,33,0.00,,,-99.99,,2013-02-19 12:42:00,
2013-02-19 12:52:00,18.0,-5.0,-100.00,South,169,1.0,5.0,34,0.00,,,-99.99,,2013-02-19 12:52:00,
2013-02-19 13:02:00,18.0,-6.0,-100.00,SW,236,2.0,6.0,34,0.00,,,-99.99,,2013-02-19 13:02:00,
2013-02-19 13:22:00,25.0,-10.0,-100.00,SE,127,6.0,16.0,21,0.00,,,-99.99,,2013-02-19 13:22:00,
2013-02-19 13:32:00,25.0,-11.0,-100.00,ESE,112,4.0,9.0,20,0.00,,,-99.99,,2013-02-19 13:32:00,
2013-02-19 13:41:00,25.0,-10.0,-100.00,SE,127,6.0,9.0,20,0.00,,,-99.99,,2013-02-19 13:41:00,
2013-02-19 13:52:00,26.0,-9.0,-100.00,SE,144,7.0,16.0,21,0.00,,,-99.99,,2013-02-19 13:52:00,
2013-02-19 14:01:00,25.0,-10.0,-100.00,SSE,167,6.0,12.0,21,0.00,,,-99.99,,2013-02-19 14:01:00,
2013-02-19 14:11:00,25.0,-9.0,-100.00,South,181,5.0,11.0,21,0.00,,,-99.99,,2013-02-19 14:11:00,
2013-02-19 14:22:00,-999.0,-99.9,-100.00,ESE,102,3.0,7.0,-999,-99.99,,,-99.99,,2013-02-19 14:22:00,
2013-02-19 14:32:00,24.0,-8.0,-100.00,ESE,107,4.0,9.0,23,0.00,,,-99.99,,2013-02-19 14:32:00,
2013-02-19 14:42:00,25.0,-8.0,-100.00,SE,131,6.0,12.0,22,0.00,,,-99.99,,2013-02-19 14:42:00,
2013-02-19 14:52:00,24.0,-7.0,-100.00,South,188,2.0,7.0,25,0.00,,,-99.99,,2013-02-19 14:52:00,
2013-02-19 15:01:00,23.0,-7.0,-100.00,South,174,1.0,3.0,25,0.00,,,-99.99,,2013-02-19 15:01:00,
2013-02-19 15:11:00,24.0,-7.0,-100.00,SSE,168,1.0,3.0,25,0.00,,,-99.99,,2013-02-19 15:11:00,
2013-02-19 15:21:00,23.0,-7.0,-100.00,South,171,2.0,5.0,26,0.00,,,-99.99,,2013-02-19 15:21:00,
2013-02-19 15:31:00,24.0,-6.0,-100.00,SSW,195,2.0,4.0,26,0.00,,,-99.99,,2013-02-19 15:31:00,
2013-02-19 15:42:00,24.0,-6.0,-100.00,SSW,210,2.0,6.0,27,0.00,,,-99.99,,2013-02-19 15:42:00,
2013-02-19 15:52:00,24.0,-6.0,-100.00,SSW,200,3.0,7.0,27,0.00,,,-99.99,,2013-02-19 15:52:00,
2013-02-19 16:01:00,23.0,-7.0,-100.00,WSW,256,4.0,7.0,26,0.00,,,-99.99,,2013-02-19 16:01:00,
2013-02-19 16:12:00,-999.0,-99.9,-100.00,WSW,246,4.0,7.0,-999,-99.99,,,-99.99,,2013-02-19 16:12:00,
2013-02-19 16:21:00,25.0,-7.0,-100.00,WSW,243,4.0,10.0,23,0.00,,,-99.99,,2013-02-19 16:21:00,
2013-02-19 16:32:00,-999.0,-99.9,-100.00,SW,229,3.0,7.0,-999,-99.99,,,-99.99,,2013-02-19 16:32:00,
2013-02-19 16:41:00,17.0,-2.0,-100.00,NW,326,3.0,5.0,43,0.00,,,-99.99,,2013-02-19 16:41:00,
2013-02-19 16:51:00,21.0,-2.0,-100.00,North,354,2.0,4.0,36,0.00,,,-99.99,,2013-02-19 16:51:00,
2013-02-19 17:01:00,22.0,-3.0,-100.00,WNW,302,2.0,5.0,32,0.00,,,-99.99,,2013-02-19 17:01:00,
2013-02-19 17:11:00,22.0,-4.0,-100.00,NW,308,3.0,6.0,31,0.00,,,-99.99,,2013-02-19 17:11:00,
2013-02-19 17:21:00,22.0,-3.0,-100.00,North,350,4.0,9.0,32,0.00,,,-99.99,,2013-02-19 17:21:00,
2013-02-19 17:32:00,20.0,-1.0,-100.00,East,82,4.0,12.0,38,0.00,,,-99.99,,2013-02-19 17:32:00,
2013-02-19 17:41:00,24.0,0.0,-100.00,ESE,103,3.0,11.0,33,0.00,,,-99.99,,2013-02-19 17:41:00,
2013-02-19 17:52:00,27.0,1.0,-100.00,ESE,114,2.0,6.0,31,0.00,,,-99.99,,2013-02-19 17:52:00,
2013-02-19 18:01:00,27.0,-1.0,-100.00,North,356,2.0,5.0,28,0.00,,,-99.99,,2013-02-19 18:01:00,
2013-02-19 18:11:00,30.0,2.0,-100.00,NNW,347,2.0,5.0,29,0.00,,,-99.99,,2013-02-19 18:11:00,
2013-02-19 18:21:00,33.0,4.0,-100.00,SW,230,2.0,8.0,28,0.00,,,-99.99,,2013-02-19 18:21:00,
2013-02-19 18:31:00,28.0,0.0,-100.00,WNW,294,3.0,7.0,30,0.00,,,-99.99,,2013-02-19 18:31:00,
2013-02-19 18:41:00,34.0,5.0,-100.00,WNW,285,1.0,6.0,28,0.00,,,-99.99,,2013-02-19 18:41:00,
2013-02-19 18:51:00,34.0,2.0,-100.00,SW,233,4.0,9.0,26,0.00,,,-99.99,,2013-02-19 18:51:00,
2013-02-19 19:01:00,34.0,0.0,-100.00,SW,230,4.0,9.0,24,0.00,,,-99.99,,2013-02-19 19:01:00,
2013-02-19 19:11:00,33.0,4.0,-100.00,SSW,192,4.0,9.0,28,0.00,,,-99.99,,2013-02-19 19:11:00,
2013-02-19 19:21:00,27.0,4.0,-100.00,North,350,7.0,11.0,36,0.00,,,-99.99,,2013-02-19 19:21:00,
2013-02-19 19:31:00,33.0,5.0,-100.00,NNW,343,4.0,9.0,30,0.00,,,-99.99,,2013-02-19 19:31:00,
2013-02-19 19:41:00,32.0,7.0,-100.00,North,349,3.0,8.0,34,0.00,,,-99.99,,2013-02-19 19:41:00,
2013-02-19 19:51:00,35.0,3.0,-100.00,ESE,113,9.0,17.0,26,0.00,,,-99.99,,2013-02-19 19:51:00,
2013-02-19 20:01:00,35.0,7.0,-100.00,SSE,150,12.0,17.0,30,0.00,,,-99.99,,2013-02-19 20:01:00,
2013-02-19 20:12:00,35.0,6.0,-100.00,South,169,11.0,16.0,30,0.00,,,-99.99,,2013-02-19 20:12:00,
2013-02-19 20:21:00,35.0,9.0,-100.00,South,169,11.0,16.0,34,0.00,,,-99.99,,2013-02-19 20:21:00,
2013-02-19 20:32:00,35.0,9.0,-100.00,SSE,155,12.0,16.0,33,0.00,,,-99.99,,2013-02-19 20:32:00,
2013-02-19 20:41:00,36.0,6.0,-100.00,SE,137,13.0,19.0,28,0.00,,,-99.99,,2013-02-19 20:41:00,
2013-02-19 20:52:00,35.0,7.0,-100.00,SE,128,14.0,19.0,30,0.00,,,-99.99,,2013-02-19 20:52:00,
2013-02-19 21:02:00,35.0,7.0,-100.00,SE,138,13.0,19.0,31,0.00,,,-99.99,,2013-02-19 21:02:00,
2013-02-19 21:12:00,-999.0,-99.9,-100.00,SSE,151,11.0,14.0,-999,-99.99,,,-99.99,,2013-02-19 21:12:00,
2013-02-19 21:21:00,35.0,9.0,-100.00,SSE,158,11.0,16.0,34,0.00,,,-99.99,,2013-02-19 21:21:00,
2013-02-19 21:31:00,35.0,12.0,-100.00,SSE,157,9.0,12.0,38,0.00,,,-99.99,,2013-02-19 21:31:00,
2013-02-19 21:42:00,35.0,10.0,-100.00,SSE,150,9.0,14.0,35,0.00,,,-99.99,,2013-02-19 21:42:00,
2013-02-19 21:51:00,35.0,9.0,-100.00,SE,136,8.0,12.0,32,0.00,,,-99.99,,2013-02-19 21:51:00,
2013-02-19 22:02:00,35.0,9.0,-100.00,SE,144,8.0,12.0,34,0.00,,,-99.99,,2013-02-19 22:02:00,
2013-02-19 22:11:00,35.0,12.0,-100.00,SE,138,6.0,10.0,38,0.00,,,-99.99,,2013-02-19 22:11:00,
2013-02-19 22:21:00,35.0,12.0,-100.00,South,179,4.0,6.0,37,0.00,,,-99.99,,2013-02-19 22:21:00,
2013-02-19 22:32:00,37.0,10.0,-100.00,South,182,3.0,6.0,33,0.00,,,-99.99,,2013-02-19 22:32:00,
2013-02-19 22:41:00,37.0,9.0,-100.00,SSW,195,4.0,7.0,31,0.00,,,-99.99,,2013-02-19 22:41:00,
2013-02-19 22:51:00,37.0,13.0,-100.00,South,182,6.0,9.0,36,0.00,,,-99.99,,2013-02-19 22:51:00,
2013-02-19 23:01:00,36.0,9.0,-100.00,South,182,9.0,12.0,32,0.00,,,-99.99,,2013-02-19 23:01:00,
2013-02-19 23:11:00,36.0,12.0,-100.00,South,184,9.0,12.0,37,0.00,,,-99.99,,2013-02-19 23:11:00,
2013-02-19 23:21:00,36.0,13.0,-100.00,South,182,7.0,10.0,37,0.00,,,-99.99,,2013-02-19 23:21:00,
2013-02-19 23:32:00,36.0,12.0,-100.00,South,191,7.0,9.0,37,0.00,,,-99.99,,2013-02-19 23:32:00,
2013-02-19 23:41:00,35.0,13.0,-100.00,SSW,199,6.0,9.0,40,0.00,,,-99.99,,2013-02-19 23:41:00,
2013-02-19 23:52:00,35.0,11.0,-100.00,SSW,193,5.0,7.0,38,-99.99,,,-99.99,,2013-02-19 23:52:00,